Tracking 19794 objects as of 21-Jul-2019
HD Live streaming from Space Station
objects crossing your sky now

FENGYUN 1C DEB

Track FENGYUN 1C DEB now!
10-day predictions


NORAD ID: 37055
Int'l Code: 1999-025EEP
Perigee: 671.8 km
Apogee: 823.0 km
Inclination: 98.6 °
Period: 99.6 minutes
Semi major axis: 7118 km
RCS: 0.008 m2 (small)
Launch date: May 10, 1999
Source: People's Republic of China (PRC)
Launch site: Taiyaun Space Center, China (TSC)

Note: This is SATELLITE DEBRIS
aabbcc
Your satellite tracking list
Your tracking list is empty




NASA's NSSDC Master Catalog

Two Line Element Set (TLE):
1 37055U 99025EEP 19198.05134090  .00000558  00000-0  16053-3 0  9991
2 37055  98.6097 291.6774 0106262 111.9896 249.2626 14.45539841562333
Source of the keplerian elements: AFSPC